Погода в Бикине

Погода в Бикине : погода сейчас, прогноз погоды и архив. Всё, что Вы хотите узнать о погоде в Бикине!

Хотите узнать прогноз погоды в Бикине? Тогда Вам сюда: Погода в Бикине

Поиск расширенной информации на нашем сайте:

Другие новости

Новости СМИ2

Главная страница сайта

Новости сайта

02.10.2013

Напоминаем, что на нашем новом сайте вы можете получить высокодетализированные прогнозы погоды по пунктам России, СНГ и мира (включающие важные для авиации метеовеличины, такие как направление и скорость ветра, видимость, явления погоды, количество и форма облачности, нижняя и верхняя граница облачности), а также ознакомиться с разнообразными материалами по авиационной метеорологии и подборкой полезных ссылок на эту тему.

Сайт Метеоцентр.Азия посвящён разработке технологий оптимизации авиаметеорологического обслуживания, включая проектирование и перспективное создание нескольких автоматизированных авиаметеорологических систем:
- система выпуска высокодетальных прогностических карт явлений погоды для нижнего воздушного пространства по России и ближнему зарубежью;
- система верификации прогнозов TAF (выпускаемых синоптиками официальных АМСГ РФ и ближнего зарубежья) и AUTOTAF (выпускаемых сайтом Метеоцентр.Азия) - выявление ошибок, онлайн-сопоставление с фактической погодой METAR, автоматическое внесение коррективов в прогнозы при резком отклонении фактической погоды от прогноза, подсчёт оправдываемости прогнозов по элементам и в целом;
- система обработки, анализа и отображения авиаметеорологической информации для применения провайдерами метеорологической информации.

Рекомендуем: http://tekstail.com.ua/ кухонные шторы купить. Фото штор.

Погода в Бикине - сегодня

Время (UTC), дата Ветер
(°,м/с) 
Видим.   Явления Облачность Т
(°С)
Тd
(°С)
f(%) Тe
(°С)
Pmin
(гПа)
dP
(гПа)
Po
(мм)
O2
(г/м3)
Тmin Tmax R s Состояние
почвы
03 20.05.17 010 (С) 20000 м    9/0 верхняя 
[Ci fib]
+19.6 -2.7 22 +20  1015.7  0.2  756  284           
06 20.05.17 350 (С) 20000 м    4/0 средняя, верхняя 
[Ac lent|Ci fib]
+21.4 -0 24 +21  1014.5  -1.1  755  282           
09 20.05.17 330 (СЗ) 20000 м    10/6 600 м кучево-дожд., верхняя 
[Cb calv|Ci sp]
+19 +1.2 30 +20  1014.4  -0.2  755  284    +21.6       
12 20.05.17 310 (СЗ) 20000 м    10/10 600 м кучево-дожд. 
[Cb calv]
+16.3 +4.7 46 +18  1015.5  756  287           
15 20.05.17 220 (ЮЗ) 20000 м    10/10 600 м 
[Sc]
+14.6 +7.5 62 +15  1015.6  0.1  756  288           
18 20.05.17 тихо ()   20000 м    10/10 600 м 
[Sc]
+12.5 +9.4 81 +13  1015.6  0.1  756  289           
21 20.05.17 тихо ()   20000 м    10/10 600 м 
[Sc]
+11.9 +9.7 86 +13  1016.3  0.8  756  290  +11.7        сухая 
00 21.05.17 350 (С) 20000 м    10/3 600 м средняя 
[Sc|Ac As]
+14.3 +9.5 73 +16  1017.3  757  288           
03 21.05.17 360 (С) 20000 м    10/10 600 м 
[Cu Sc]
+17.2 -0.2 31 +18  1016.9  -0.3  757  287           
06 21.05.17 340 (С) 20000 м    10/0 средняя 
[Ac As]
+17.6 -2 26 +18  1016  -0.9  756  286           
09 21.05.17 340 (С) 20000 м    10/0 средняя 
[Ac As]
+16.1 -2.3 28 +17  1015.6  -0.4  756  288    +18.7       
12 21.05.17 340 (С) 20000 м    10/0 средняя 
[Ac As]
+13 -0.5 39 +14  1017.4  1.6  757  291           
15 21.05.17 190 (Ю) 20000 м    10/0 средняя 
[Ac As]
+9.4 +2 60 +10  1018.2  0.7  757  295           
18 21.05.17 тихо ()   20000 м    10/0 средняя 
[Ac As]
+6.6 +2.5 75 +7  1019.2  0.9  758  298           
21 21.05.17 тихо ()   20000 м    10/0 верхняя 
[Cc]
+6.6 +3.3 79 +7  1020.4  1.2  759  298  +5.2        сухая 
00 22.05.17 300 (СЗ) 20000 м    10/0 средняя 
[Ac As]
+12.1 +1.3 48 +13  1020.2  -0.1  759  293           
03 22.05.17 350 (С) 20000 м    10/0 верхняя 
[Cs]
+15.8 -5.5 23 +17  1018.7  -1.4  758  289           
06 22.05.17 300 (СЗ) 20000 м    10/0 верхняя 
[Cs]
+16.7 -5.2 22 +18  1016.6  -2  756  288           
09 22.05.17 тихо ()   20000 м    10/0 средняя, верхняя 
[Ac trans|Cs]
+16 -5.4 22 +16  1015.2  -1.4  755  288    +17.2       
12 22.05.17 080 (В) 20000 м    10/0 средняя 
[Ac und]
+10 +2.1 58 +11  1015.1  -0.3  755  293           
15 22.05.17 040 (СВ) 20000 м    10/0 средняя 
[Ac und]
+8.2 +3.2 71 +9  1013.2  -2  754  294           
18 22.05.17 010 (С) 20000 м    10/10 600 м 
[Sc]
+7.9 +4.3 78 +9  1013.2  754  295           
21 22.05.17 тихо ()   10 км  слаб. дождь  10/10 600 м 
[Ns]
+7.5 +6.1 91 +8  1011.1  -2.1  752  294  +7.1      влажная 
00 23.05.17 150 (ЮВ) 10 км  слаб. дождь  10/10 600 м 
[Ns]
+8.6 +7.2 91 +9  1009.5  -1.5  751  292           
03 23.05.17 140 (ЮВ) 10 км  слаб. дождь  10/10 600 м 
[Ns]
+10.1 +8.4 89 +10  1008  -1.5  750  290           
Время (UTC), дата Ветер
(°,м/с) 
Видим.   Явления Облачность Т
(°С)
Тd
(°С)
f(%) Тe
(°С)
Pmin
(гПа)
dP
(гПа)
Po
(мм)
O2
(г/м3)
Тmin Tmax R s Состояние
почвы

Для получения пояснительной информации подведите курсор к названию столбца.

ПОГОДА в Бикине - архив

Всё, что Вы хотите узнать о погоде в Бикине - удобно и подробно!

Выберите нужную дату (начиная с 1 января 2015* года) и нажмите кнопку "Найти".
Будут отображены архивные сводки погоды по пункту Бикин, начиная с указанной даты.


Отображать данные в формате CSV (для использования в таблицах Excel)


Внимание! Наш архив погоды предназначен исключительно для личного некоммерческого использования в познавательных целях. Если Вам необходимы официальные справки о состоянии погоды (для производственных, юридических, коммерческих и т.п. целей), обращайтесь в органы Росгидромета.

*Примечание: данная дата относится к архиву по метеостанциям СССР (Россия, СНГ, Балтия).
Архив по метеостанциям Зарубежной Европы и Азии (кроме Китая) хранится 10 дней, по другим регионам земного шара (Китай, Африка, Америка, Австралия, Океания) - 1 день.

Бикин - район местоположения метеостанции


Название, широта, долгота, высота метеостанции:
Бикин 46.8°ш. 134.3°д. 68 м над ур. моря [Российская Федерация]

Дополнительная информация

В oтличие oт бoльшинства пoгoдных сайтoв мы публикуем пoдрoбную метеoинфoрмацию в детальнoм прoфессиoнальнoм фoрмате.

Характеристики температуры и влажнoсти вoздуха измеряются на высoте 2 м в тени вдали oт зданий и деревьев.
Скoрoсть ветра измеряется на высoте 10 м (на урoвне рoста челoвека скoрoсть ветра ниже в 1.5-2 раза). Если метеoстанция нахoдится в гoрoде или в лесу, тo скoрoсть ветра занижена на 2-4 м/с пo сравнению с oткрытым местoм. Скoрoсть ветра над акватoриями крупных рек и oзёр, а также на вершинах хoлмoв на 2-5 м/с выше, чем в oбычных услoвиях.
Атмoсфернoе давление в разных тoчках местнoсти мoжет значительнo oтличаться oт давления на метеoстанции, в зависимoсти oт услoвий рельефа (при пoдъёме на 10 м давление пoнижается примернo на 1 мм рт.ст.).